[[{"header":{"parameterUnit":"m.s-1","parameterCategory":2,"la1":30.2991,"la2":30.254,"lo1":-89.0895,"lo2":-89.0444,"dy":0.0017,"dx":0.0017,"nx":28,"ny":28,"refTime":"2024-03-01T03:00:00:Z","depth":"0","parameterNumber":2,"parameterNumberName":"U-component_of_CURRENTS"},"data":[0,0,0,0,0,0,0,0,0,0,0,0,0,0,0,0,0,0,0,0,0,0,0,0,0,0,0,0,0,0,0,0,0,0,0,0,0,0,0,0,0,0,0,0,0,0,0,0,0,0,0,0,0,0,0,0,0,0,0.1404,0.1404,0,0.1417,0.1418,0.1418,0.1409,0.1409,0.1409,0.1408,0.1409,0.141,0.141,0,0,0,0,0,0,0,0,0,0,0,0,0,0.1376,0.1376,0.1404,0.1404,0.1404,0.1417,0.1418,0.1418,0.1409,0.1409,0.1409,0.1408,0.1409,0.141,0.141,0,0,0,0,0,0,0,0,0,0,0,0,0,0.1387,0.1376,0.1404,0.1403,0.1403,0.1417,0.1418,0.1418,0.1409,0.1409,0.1409,0.1408,0.1409,0.141,0.141,0.1422,0,0,0.1412,0.1412,0,0,0,0,0,0,0,0,0.1387,0.1388,0.1403,0.1403,0.1403,0.1412,0.1408,0.1419,0.141,0.1406,0.1408,0.1408,0.141,0.1411,0.1413,0.1422,0.1422,0.1412,0.1412,0.1412,0.1412,0,0,0,0,0,0,0,0.1386,0.1388,0.1408,0.1403,0.1403,0.1403,0.1404,0.141,0.1409,0.1406,0.1406,0.1409,0.141,0.1412,0.1413,0.1422,0.1412,0.1412,0.1412,0.1412,0.1456,0.1456,0,0,0,0,0,0,0.1387,0.1387,0.1408,0.1409,0.1395,0.1404,0.1405,0.1409,0.1409,0.141,0.1409,0.1409,0.1412,0.1412,0.1413,0.1436,0.1412,0.1412,0.1413,0.1455,0.1456,0.1457,0,0,0,0,0,0,0.1386,0.1389,0.1407,0.1399,0.1401,0.1405,0.1409,0.1409,0.1414,0.1412,0.1412,0.1415,0.1411,0.1412,0.1423,0.1436,0.1413,0.1413,0.1454,0.1455,0.1456,0.1477,0,0,0,0,0,0,0.1385,0.1388,0.1393,0.1399,0.1402,0.1421,0.141,0.141,0.1417,0.1416,0.1417,0.1416,0.1411,0.1423,0.1424,0.1436,0.1413,0.1453,0.1454,0.1456,0.1475,0.1479,0.1482,0,0,0,0,0,0.1384,0.1393,0.1393,0.1395,0.1407,0.1422,0.1424,0.1424,0.1418,0.1425,0.1425,0.1416,0.1434,0.1424,0.1425,0.1437,0.1452,0.1454,0.1456,0.1473,0.1478,0.1482,0,0,0,0,0,0,0.1382,0.1393,0.1393,0.1404,0.1415,0.1421,0.1428,0.1428,0.1434,0.1432,0.1426,0.1426,0.1442,0.1439,0.1428,0.1456,0.1442,0.1445,0.1455,0.146,0.1463,0.1473,0.1414,0,0,0,0,0,0.1385,0.1394,0.1404,0.1413,0.142,0.1425,0.1431,0.1432,0.1438,0.144,0.1439,0.1443,0.1451,0.1454,0.1461,0.1475,0.1503,0.1485,0.1489,0.1491,0.1502,0.1543,0.1551,0.1463,0.1463,0.1463,0,0,0.1385,0.1394,0.1398,0.1414,0.1421,0.1435,0.1427,0.1441,0.145,0.144,0.1452,0.1455,0.1459,0.1474,0.1481,0.1473,0.1537,0.1494,0.1496,0.1505,0.1546,0.1554,0.1562,0.1465,0.1464,0.1464,0,0,0.1394,0.1401,0.1411,0.1424,0.144,0.1445,0.145,0.1461,0.1464,0.1479,0.1475,0.1487,0.1495,0.1503,0.1507,0.1535,0.1554,0.1536,0.1559,0.1599,0.1607,0.1613,0.1686,0.17,0.1536,0.1536,0.1536,0,0.1393,0.1408,0.1417,0.1434,0.1445,0.1451,0.1466,0.1474,0.1486,0.1494,0.1486,0.1513,0.1511,0.1538,0.1546,0.1543,0.158,0.154,0.1604,0.1611,0.1618,0.169,0.1705,0.1537,0.1537,0.1537,0.1537,0,0.141,0.1423,0.1433,0.1454,0.1469,0.1483,0.1498,0.1511,0.1514,0.1522,0.1548,0.1552,0.1571,0.1571,0.1565,0.1612,0.163,0.1604,0.1593,0.1628,0.1703,0.1717,0.1539,0.1538,0.1538,0.1538,0,0,0.1398,0.1436,0.1438,0.1449,0.148,0.149,0.1517,0.154,0.1558,0.1569,0.1599,0.1611,0.1618,0.1625,0.1624,0.1653,0.1736,0.165,0.1652,0.1723,0.1858,0.1883,0.1901,0.1719,0.1721,0.1722,0.1901,0,0.1405,0.1434,0.1455,0.1479,0.1494,0.1516,0.1541,0.1564,0.1583,0.1614,0.1627,0.1654,0.1637,0.1653,0.1681,0.172,0.1771,0.1692,0.1814,0.1818,0.1834,0.1917,0.1861,0.2016,0.1915,0.1918,0.1919,0,0.141,0.143,0.1455,0.1492,0.1501,0.1519,0.156,0.1583,0.163,0.165,0.1684,0.1701,0.1756,0.1727,0.1833,0.1786,0.1833,0.186,0.1867,0.1891,0.1869,0.1959,0.2046,0.2039,0.1942,0.194,0.1938,0,0.1387,0.1426,0.1443,0.1455,0.15,0.1517,0.1543,0.1591,0.1615,0.1679,0.1714,0.1771,0.1816,0.1871,0.1935,0.1895,0.2057,0.2006,0.2082,0.2085,0.2064,0.2061,0.2154,0.2093,0.2093,0.2092,0.2092,0,0.138,0.1391,0.1432,0.1438,0.1461,0.1504,0.1536,0.1572,0.1634,0.1677,0.173,0.1791,0.1852,0.1943,0.1983,0.2101,0.2107,0.2122,0.2138,0.2072,0.2069,0.2079,0.2048,0.2099,0.2098,0.2096,0.2095,0,0.1345,0.1373,0.1389,0.1434,0.1447,0.1461,0.1519,0.1546,0.1619,0.1684,0.1711,0.183,0.1966,0.2042,0.216,0.218,0.2224,0.2306,0.2247,0.2252,0.229,0.2261,0.2215,0.2147,0.2428,0.243,0.2431,0,0.1328,0.1334,0.1368,0.1376,0.1393,0.1425,0.1448,0.152,0.1559,0.171,0.1743,0.1905,0.2007,0.2216,0.2297,0.2419,0.2313,0.2429,0.2328,0.2323,0.2303,0.2123,0.2054,0.2326,0.2326,0.2326,0.2327,0,0.1291,0.1301,0.1313,0.1332,0.135,0.1373,0.142,0.1448,0.1552,0.1631,0.1767,0.1868,0.2099,0.2226,0.2397,0.244,0.2313,0.2441,0.2441,0.225,0.2055,0.1986,0.2201,0.233,0.233,0.233,0.2329,0.2329,0.1254,0.1253,0.127,0.1283,0.1301,0.1321,0.1331,0.1398,0.1464,0.1583,0.1729,0.1878,0.2123,0.2363,0.2397,0.2473,0.2366,0.2436,0.2416,0.2246,0.2122,0.237,0.25,0.25,0.2501,0.2501,0.2502,0,0.1212,0.1219,0.1226,0.1235,0.1233,0.1267,0.1308,0.1317,0.1377,0.1541,0.1663,0.1942,0.2118,0.2294,0.2493,0.2471,0.227,0.2422,0.2161,0.2104,0.2365,0.2306,0.2392,0.2392,0.2392,0.2392,0.2392,0.2392,0.1192,0.1182,0.1187,0.1166,0.1175,0.1162,0.1177,0.1204,0.1302,0.1469,0.1645,0.181,0.2142,0.242,0.2502,0.2446,0.2252,0.2147,0.2116,0.2339,0.2337,0.2335,0.2274,0.2352,0.2352,0.1737,0.1733,0.173]},{"header":{"parameterUnit":"m.s-1","parameterCategory":2,"la1":30.2991,"la2":30.254,"lo1":-89.0895,"lo2":-89.0444,"dy":0.0017,"dx":0.0017,"nx":28,"ny":28,"refTime":"2024-03-01T03:00:00:Z","depth":"0","parameterNumber":3,"parameterNumberName":"V-component_of_CURRENTS"},"data":[0,0,0,0,0,0,0,0,0,0,0,0,0,0,0,0,0,0,0,0,0,0,0,0,0,0,0,0,0,0,0,0,0,0,0,0,0,0,0,0,0,0,0,0,0,0,0,0,0,0,0,0,0,0,0,0,0,0,0.0004,0.0003,0,-0.0053,-0.0053,-0.0054,-0.0086,-0.0086,-0.0086,-0.0086,-0.0152,-0.0154,-0.0155,0,0,0,0,0,0,0,0,0,0,0,0,0,0.0063,0.0062,0.0004,0.0003,0.0003,-0.0053,-0.0053,-0.0054,-0.0086,-0.0086,-0.0086,-0.0086,-0.0151,-0.0153,-0.0155,0,0,0,0,0,0,0,0,0,0,0,0,0,0.0025,0.0062,0.0004,-0.002,-0.0022,-0.0052,-0.0053,-0.0054,-0.0086,-0.0086,-0.0086,-0.0086,-0.0151,-0.0153,-0.0156,-0.0169,0,0,-0.0163,-0.0165,0,0,0,0,0,0,0,0,0.0027,0.0023,-0.0015,-0.0018,-0.0021,-0.0062,-0.0057,-0.0093,-0.0086,-0.0062,-0.0086,-0.0086,-0.0122,-0.0127,-0.0138,-0.0172,-0.0175,-0.0164,-0.0165,-0.0166,-0.0167,0,0,0,0,0,0,0,0.003,0.0025,-0.0019,-0.0016,-0.002,-0.0035,-0.004,-0.0064,-0.0091,-0.0064,-0.0067,-0.0072,-0.0124,-0.0136,-0.014,-0.0176,-0.0164,-0.0166,-0.0167,-0.0168,-0.0221,-0.0221,0,0,0,0,0,0,0.0039,0.0027,-0.0017,-0.002,0.0004,-0.0036,-0.0042,-0.0049,-0.0091,-0.0097,-0.0072,-0.0074,-0.0131,-0.0137,-0.0142,-0.0158,-0.0166,-0.0169,-0.017,-0.0222,-0.0221,-0.0221,0,0,0,0,0,0,0.004,0.0035,-0.0015,0.0003,-0.0005,-0.0036,-0.0044,-0.005,-0.0061,-0.0097,-0.0104,-0.0076,-0.0132,-0.0139,-0.0162,-0.0161,-0.017,-0.0172,-0.0222,-0.0221,-0.0221,-0.019,0,0,0,0,0,0,0.0042,0.0036,0.0035,0.0003,-0.0005,-0.0028,-0.0045,-0.0051,-0.0064,-0.0066,-0.0103,-0.0109,-0.0132,-0.0158,-0.0165,-0.0164,-0.0174,-0.0222,-0.0222,-0.0221,-0.0192,-0.0189,-0.0187,0,0,0,0,0,0.0044,0.0044,0.0035,0.0029,-0.0007,-0.0028,-0.0034,-0.0057,-0.0064,-0.0067,-0.0092,-0.0108,-0.0161,-0.016,-0.0168,-0.0168,-0.0222,-0.0222,-0.0221,-0.0193,-0.019,-0.0187,0,0,0,0,0,0,0.007,0.0039,0.0029,0.002,-0.0,-0.0033,-0.0039,-0.0053,-0.0076,-0.0078,-0.011,-0.0118,-0.0138,-0.0156,-0.0154,-0.0182,-0.0193,-0.0194,-0.0168,-0.0166,-0.0164,-0.0154,-0.0176,0,0,0,0,0,0.0075,0.0066,0.0036,0.003,0.0021,-0.0007,-0.0018,-0.0034,-0.0058,-0.0068,-0.0094,-0.012,-0.0143,-0.0156,-0.018,-0.0197,-0.0197,-0.0201,-0.0198,-0.0196,-0.0193,-0.0195,-0.0193,-0.0221,-0.0221,-0.0221,0,0,0.0083,0.0066,0.006,0.0035,0.0017,0.0007,-0.0014,-0.0028,-0.0037,-0.0072,-0.0089,-0.0114,-0.0146,-0.0165,-0.0175,-0.018,-0.0186,-0.0196,-0.0194,-0.0192,-0.0195,-0.0192,-0.019,-0.022,-0.022,-0.022,0,0,0.0096,0.008,0.0077,0.0062,0.0038,0.002,0.0019,-0.0012,-0.0024,-0.0045,-0.0071,-0.0094,-0.0129,-0.0153,-0.0169,-0.0168,-0.0174,-0.0173,-0.0156,-0.0158,-0.0156,-0.0154,-0.0135,-0.0131,-0.0172,-0.0172,-0.0172,0,0.0109,0.0099,0.0073,0.0067,0.0059,0.0029,0.0027,0.0008,-0.0025,-0.0032,-0.0044,-0.0093,-0.0124,-0.0146,-0.0149,-0.0164,-0.0156,-0.0164,-0.0154,-0.0153,-0.0151,-0.0132,-0.0129,-0.0171,-0.0171,-0.0171,-0.0171,0,0.0115,0.011,0.0108,0.0089,0.0077,0.0072,0.0044,0.0032,0.0015,-0.0004,-0.0026,-0.0067,-0.0092,-0.0109,-0.0133,-0.0138,-0.0132,-0.015,-0.0159,-0.0146,-0.0127,-0.0124,-0.0169,-0.0169,-0.017,-0.017,0,0,0.0143,0.0118,0.0119,0.0118,0.0091,0.0084,0.0071,0.0053,0.0057,0.0019,0.0021,-0.0035,-0.005,-0.0069,-0.0099,-0.0111,-0.0096,-0.0124,-0.0124,-0.0099,-0.0078,-0.0089,-0.0086,-0.0109,-0.0109,-0.0109,-0.0063,0,0.0159,0.0157,0.0138,0.0142,0.0141,0.0114,0.0108,0.0088,0.0073,0.0069,0.0025,0.0016,-0.0036,-0.0038,-0.0062,-0.0085,-0.0089,-0.0106,-0.0099,-0.0098,-0.0106,-0.0084,-0.0084,-0.0046,-0.006,-0.006,-0.006,0,0.0174,0.0172,0.0177,0.0174,0.0172,0.0168,0.0164,0.0158,0.0139,0.0127,0.0104,0.0082,0.0055,0.0016,-0.002,-0.0024,-0.0048,-0.007,-0.0068,-0.0089,-0.0104,-0.0065,-0.004,-0.0131,-0.0055,-0.0055,-0.0056,0,0.0207,0.0203,0.0211,0.0208,0.0195,0.0195,0.0192,0.0176,0.0189,0.0176,0.0195,0.0146,0.0151,0.0098,0.0046,0.0022,0.0021,-0.0017,-0.0046,-0.0046,-0.0051,-0.0053,-0.0112,-0.0034,-0.0034,-0.0034,-0.0034,0,0.0233,0.0241,0.0229,0.0233,0.0255,0.0232,0.0256,0.0246,0.0253,0.029,0.0237,0.0268,0.0174,0.0161,0.0088,0.004,0.0057,-0.0033,-0.0037,-0.0039,-0.004,-0.0125,-0.0193,-0.0032,-0.0033,-0.0033,-0.0033,0,0.0263,0.0254,0.0268,0.0264,0.027,0.0286,0.0305,0.0328,0.0329,0.0382,0.039,0.0377,0.0358,0.0271,0.0206,0.0118,0.0,0.0038,0.0051,0.0046,-0.0094,-0.016,-0.0225,-0.0284,0.0008,0.0008,0.0008,0,0.0277,0.0284,0.0298,0.0317,0.0316,0.0337,0.036,0.0363,0.0401,0.0459,0.0501,0.0505,0.0521,0.0417,0.0259,0.0142,0.0033,0.0059,-0.0009,-0.0095,-0.0171,-0.0219,-0.0268,0.001,0.001,0.001,0.001,0,0.0305,0.0307,0.0321,0.0363,0.0391,0.0429,0.0467,0.051,0.054,0.0599,0.0689,0.0714,0.0612,0.0502,0.032,0.021,-0.003,0.0054,-0.0041,-0.018,-0.023,-0.0289,-0.0014,0.001,0.001,0.001,0.001,0.001,0.0331,0.0349,0.0373,0.0416,0.0459,0.0526,0.0571,0.063,0.0717,0.0824,0.0839,0.0914,0.0732,0.0481,0.0292,-0.0017,-0.003,-0.0102,-0.017,-0.0206,-0.0288,-0.0006,0.0007,0.0007,0.0007,0.0007,0.0007,0,0.0364,0.0387,0.0427,0.0487,0.0551,0.0562,0.0652,0.0708,0.0829,0.094,0.1026,0.1044,0.0767,0.0479,0.0061,-0.0181,-0.0298,-0.0303,-0.0377,-0.0416,-0.0159,-0.0185,-0.0207,-0.0207,-0.0206,-0.0206,-0.0206,-0.0206,0.0386,0.0428,0.045,0.0561,0.061,0.0703,0.0762,0.085,0.0945,0.1123,0.1234,0.1307,0.1198,0.0347,-0.021,-0.038,-0.0572,-0.0596,-0.0685,-0.0517,-0.0504,-0.0491,-0.0531,-0.0625,-0.0625,-0.0913,-0.0916,-0.0918]}],[{"header":{"parameterUnit":"m.s-1","parameterCategory":2,"la1":30.2991,"la2":30.254,"lo1":-89.0895,"lo2":-89.0444,"dy":0.0017,"dx":0.0017,"nx":28,"ny":28,"refTime":"2024-03-01T03:00:00:Z","depth":"2","parameterNumber":2,"parameterNumberName":"U-component_of_CURRENTS"},"data":[0,0,0,0,0,0,0,0,0,0,0,0,0,0,0,0,0,0,0,0,0,0,0,0,0,0,0,0,0,0,0,0,0,0,0,0,0,0,0,0,0,0,0,0,0,0,0,0,0,0,0,0,0,0,0,0,0,0,0.1422,0.1422,0,0.1437,0.1437,0.1437,0.143,0.1429,0.1429,0.1429,0.1432,0.1432,0.1433,0,0,0,0,0,0,0,0,0,0,0,0,0,0.1393,0.1394,0.1422,0.1422,0.1423,0.1437,0.1437,0.1437,0.143,0.1429,0.1429,0.1429,0.1432,0.1432,0.1433,0,0,0,0,0,0,0,0,0,0,0,0,0,0.1406,0.1394,0.1422,0.1421,0.1422,0.1436,0.1437,0.1437,0.143,0.1429,0.1429,0.1428,0.1432,0.1432,0.1433,0.1444,0,0,0.1434,0.1435,0,0,0,0,0,0,0,0,0.1405,0.1406,0.1421,0.1422,0.1422,0.1432,0.1428,0.1439,0.143,0.1426,0.1429,0.1428,0.1432,0.1432,0.1435,0.1445,0.1445,0.1434,0.1435,0.1435,0.1435,0,0,0,0,0,0,0,0.1404,0.1406,0.1427,0.1422,0.1422,0.1422,0.1423,0.143,0.143,0.1426,0.1426,0.1429,0.1432,0.1434,0.1435,0.1445,0.1434,0.1435,0.1435,0.1435,0.1481,0.1481,0,0,0,0,0,0,0.1405,0.1405,0.1426,0.1427,0.1413,0.1423,0.1424,0.1428,0.143,0.143,0.1429,0.1429,0.1433,0.1434,0.1435,0.1459,0.1435,0.1435,0.1436,0.148,0.1481,0.1482,0,0,0,0,0,0,0.1404,0.1406,0.1426,0.1417,0.142,0.1424,0.1428,0.1429,0.1434,0.1433,0.1433,0.1435,0.1433,0.1434,0.1446,0.1459,0.1436,0.1436,0.1479,0.148,0.1481,0.1501,0,0,0,0,0,0,0.1403,0.1406,0.141,0.1417,0.142,0.144,0.1429,0.1429,0.1437,0.1436,0.1438,0.1437,0.1433,0.1445,0.1446,0.1459,0.1437,0.1477,0.1479,0.1481,0.1499,0.1503,0.1506,0,0,0,0,0,0.1402,0.141,0.1411,0.1413,0.1426,0.144,0.1442,0.1443,0.1438,0.1445,0.1445,0.1437,0.1457,0.1446,0.1448,0.1461,0.1477,0.1479,0.1481,0.1498,0.1502,0.1506,0,0,0,0,0,0,0.14,0.1411,0.1411,0.1422,0.1433,0.144,0.1447,0.1447,0.1453,0.1452,0.1447,0.1448,0.1464,0.1462,0.1451,0.148,0.1466,0.1469,0.1479,0.1483,0.1487,0.1496,0.1437,0,0,0,0,0,0.1402,0.1411,0.1422,0.1431,0.1438,0.1443,0.145,0.1451,0.1457,0.1459,0.146,0.1464,0.1474,0.1477,0.1484,0.1499,0.1526,0.151,0.1513,0.1516,0.1526,0.1567,0.1575,0.1488,0.1488,0.1488,0,0,0.1402,0.1411,0.1415,0.1432,0.1439,0.1453,0.1446,0.1459,0.1469,0.146,0.1473,0.1476,0.1481,0.1497,0.1505,0.1497,0.1561,0.1519,0.1521,0.1529,0.157,0.1579,0.1587,0.149,0.1489,0.1489,0,0,0.1411,0.1418,0.1429,0.1441,0.1457,0.1463,0.1468,0.1479,0.1483,0.1498,0.1495,0.1508,0.1518,0.1526,0.1531,0.1559,0.1578,0.156,0.1583,0.1624,0.1631,0.1638,0.1709,0.1722,0.1561,0.1561,0.1561,0,0.141,0.1425,0.1435,0.1451,0.1462,0.1468,0.1483,0.1492,0.1505,0.1513,0.1506,0.1534,0.1533,0.1561,0.1569,0.1567,0.1603,0.1565,0.1628,0.1635,0.1642,0.1713,0.1727,0.1562,0.1562,0.1562,0.1562,0,0.1427,0.144,0.1449,0.147,0.1486,0.15,0.1515,0.1528,0.1533,0.154,0.1567,0.1573,0.1592,0.1593,0.1588,0.1635,0.1653,0.1628,0.1617,0.1652,0.1724,0.1739,0.1564,0.1563,0.1563,0.1563,0,0,0.1414,0.1452,0.1454,0.1465,0.1496,0.1507,0.1534,0.1557,0.1575,0.1588,0.1617,0.1631,0.1638,0.1645,0.1646,0.1675,0.1757,0.1674,0.1675,0.1744,0.1879,0.1883,0.1899,0.1743,0.1745,0.1746,0.1919,0,0.1421,0.145,0.147,0.1494,0.1509,0.1532,0.1557,0.1581,0.16,0.1631,0.1646,0.1674,0.1657,0.1673,0.1702,0.1742,0.1792,0.1715,0.1835,0.1839,0.1837,0.1914,0.1722,0.1858,0.1933,0.1936,0.1937,0,0.1425,0.1445,0.147,0.1507,0.1516,0.1534,0.1575,0.1599,0.1646,0.1666,0.1701,0.1718,0.1775,0.1747,0.1853,0.1807,0.1852,0.188,0.1887,0.1892,0.1869,0.183,0.1881,0.1961,0.1959,0.1958,0.1956,0,0.1402,0.1441,0.1458,0.147,0.1515,0.1532,0.1558,0.1606,0.1631,0.1695,0.1731,0.1789,0.1835,0.1889,0.1954,0.1914,0.2076,0.2025,0.208,0.2082,0.1944,0.193,0.211,0.211,0.2109,0.2109,0.2108,0,0.1394,0.1406,0.1447,0.1453,0.1476,0.1519,0.1551,0.1588,0.165,0.1694,0.1748,0.1809,0.1871,0.1962,0.2002,0.2108,0.2125,0.2116,0.2131,0.1949,0.1934,0.2027,0.2015,0.2115,0.2114,0.2113,0.2111,0,0.136,0.1388,0.1404,0.1449,0.1462,0.1476,0.1536,0.1563,0.1637,0.1702,0.1731,0.1849,0.1983,0.2058,0.2175,0.2183,0.2267,0.2295,0.21,0.2087,0.2238,0.2225,0.2384,0.2386,0.2387,0.2388,0.2389,0,0.1342,0.1348,0.1383,0.1392,0.1408,0.1441,0.1465,0.1538,0.1578,0.1729,0.1764,0.1923,0.2021,0.2216,0.2258,0.236,0.2363,0.2243,0.2119,0.2271,0.2269,0.2253,0.2239,0.1958,0.1956,0.1954,0.1952,0,0.1305,0.1316,0.1329,0.1348,0.1367,0.1392,0.1441,0.147,0.1575,0.1653,0.179,0.1886,0.2077,0.211,0.2245,0.2261,0.2205,0.2206,0.2422,0.1916,0.1882,0.1876,0.1873,0.1933,0.1935,0.1936,0.1937,0.1938,0.127,0.1269,0.1287,0.1301,0.132,0.1343,0.1355,0.1423,0.1491,0.1599,0.1734,0.1831,0.1924,0.2041,0.204,0.2042,0.2186,0.2084,0.2085,0.209,0.2006,0.1976,0.2032,0.2034,0.2036,0.2038,0.204,0,0.1228,0.1236,0.1244,0.1256,0.1257,0.1291,0.1336,0.1348,0.1409,0.1529,0.1631,0.1586,0.1653,0.1747,0.173,0.1782,0.1691,0.1711,0.1562,0.1586,0.1606,0.149,0.1383,0.1381,0.1378,0.1376,0,0,0.1209,0.12,0.1207,0.1192,0.1203,0.1196,0.1212,0.1242,0.1311,0.1359,0.1402,0.1559,0.1689,0.1493,0.151,0.1444,0.1483,0.1384,0.1918,0.1765,0.178,0.1843,0.1696,0,0,0,0,0]},{"header":{"parameterUnit":"m.s-1","parameterCategory":2,"la1":30.2991,"la2":30.254,"lo1":-89.0895,"lo2":-89.0444,"dy":0.0017,"dx":0.0017,"nx":28,"ny":28,"refTime":"2024-03-01T03:00:00:Z","depth":"2","parameterNumber":3,"parameterNumberName":"V-component_of_CURRENTS"},"data":[0,0,0,0,0,0,0,0,0,0,0,0,0,0,0,0,0,0,0,0,0,0,0,0,0,0,0,0,0,0,0,0,0,0,0,0,0,0,0,0,0,0,0,0,0,0,0,0,0,0,0,0,0,0,0,0,0,0,-0.0086,-0.0087,0,-0.014,-0.0141,-0.0141,-0.0171,-0.0171,-0.0171,-0.0171,-0.0234,-0.0236,-0.0238,0,0,0,0,0,0,0,0,0,0,0,0,0,-0.003,-0.0031,-0.0086,-0.0087,-0.0087,-0.014,-0.0141,-0.0141,-0.0171,-0.0171,-0.0171,-0.0171,-0.0234,-0.0236,-0.0238,0,0,0,0,0,0,0,0,0,0,0,0,0,-0.0067,-0.0031,-0.0086,-0.0108,-0.011,-0.014,-0.0141,-0.0142,-0.0171,-0.0171,-0.0171,-0.0171,-0.0233,-0.0236,-0.0238,-0.0252,0,0,-0.0246,-0.0247,0,0,0,0,0,0,0,0,-0.0064,-0.0069,-0.0104,-0.0106,-0.0109,-0.0148,-0.0144,-0.0179,-0.0171,-0.0148,-0.0171,-0.0171,-0.0206,-0.0211,-0.0221,-0.0255,-0.0258,-0.0246,-0.0248,-0.0249,-0.0249,0,0,0,0,0,0,0,-0.0062,-0.0067,-0.0108,-0.0105,-0.0108,-0.0123,-0.0128,-0.0151,-0.0177,-0.015,-0.0152,-0.0158,-0.0208,-0.0219,-0.0223,-0.0259,-0.0246,-0.0248,-0.025,-0.0251,-0.0301,-0.0301,0,0,0,0,0,0,-0.0053,-0.0064,-0.0106,-0.0109,-0.0086,-0.0123,-0.0129,-0.0136,-0.0176,-0.0182,-0.0158,-0.0159,-0.0215,-0.022,-0.0226,-0.0238,-0.0249,-0.0251,-0.0252,-0.0301,-0.0301,-0.0301,0,0,0,0,0,0,-0.0052,-0.0057,-0.0104,-0.0087,-0.0094,-0.0124,-0.0132,-0.0137,-0.0146,-0.0182,-0.0188,-0.0161,-0.0215,-0.0222,-0.0244,-0.0241,-0.0252,-0.0254,-0.0301,-0.0301,-0.0301,-0.0268,0,0,0,0,0,0,-0.005,-0.0056,-0.0057,-0.0087,-0.0095,-0.0116,-0.0132,-0.0138,-0.0149,-0.0151,-0.0187,-0.0193,-0.0216,-0.024,-0.0247,-0.0245,-0.0256,-0.0302,-0.0301,-0.0301,-0.0269,-0.0267,-0.0264,0,0,0,0,0,-0.0048,-0.0048,-0.0056,-0.0061,-0.0096,-0.0116,-0.0122,-0.0143,-0.0149,-0.0152,-0.0176,-0.0192,-0.0243,-0.0242,-0.025,-0.0249,-0.0302,-0.0301,-0.0301,-0.027,-0.0267,-0.0264,0,0,0,0,0,0,-0.0023,-0.0052,-0.0062,-0.007,-0.0089,-0.0121,-0.0125,-0.0139,-0.016,-0.0162,-0.0193,-0.0201,-0.0219,-0.0238,-0.0236,-0.0262,-0.0273,-0.0274,-0.0247,-0.0245,-0.0242,-0.0233,-0.0258,0,0,0,0,0,-0.0018,-0.0026,-0.0054,-0.006,-0.0068,-0.0095,-0.0106,-0.012,-0.0143,-0.0152,-0.0177,-0.0202,-0.0224,-0.0237,-0.026,-0.0275,-0.0279,-0.0278,-0.0275,-0.0273,-0.027,-0.0275,-0.0272,-0.03,-0.03,-0.03,0,0,-0.001,-0.0026,-0.0031,-0.0055,-0.0072,-0.0081,-0.0102,-0.0114,-0.0121,-0.0156,-0.0171,-0.0195,-0.0226,-0.0244,-0.0253,-0.0259,-0.0265,-0.0273,-0.0271,-0.0269,-0.0274,-0.0272,-0.0269,-0.0299,-0.0299,-0.03,0,0,0.0003,-0.0012,-0.0014,-0.0028,-0.005,-0.0067,-0.0068,-0.0097,-0.0108,-0.0126,-0.0152,-0.0173,-0.0207,-0.0229,-0.0245,-0.0243,-0.0252,-0.0247,-0.0229,-0.0233,-0.0231,-0.0229,-0.0216,-0.0213,-0.0246,-0.0246,-0.0246,0,0.0016,0.0007,-0.0017,-0.0023,-0.003,-0.0058,-0.0059,-0.0076,-0.0107,-0.0114,-0.0125,-0.0172,-0.02,-0.0221,-0.0223,-0.0237,-0.0233,-0.0237,-0.0229,-0.0228,-0.0226,-0.0214,-0.0211,-0.0244,-0.0245,-0.0245,-0.0245,0,0.0024,0.0019,0.0018,0.0002,-0.001,-0.0014,-0.004,-0.005,-0.0066,-0.0083,-0.0104,-0.0143,-0.0167,-0.0182,-0.0205,-0.021,-0.0207,-0.0225,-0.0235,-0.0221,-0.0209,-0.0207,-0.0242,-0.0243,-0.0243,-0.0244,0,0,0.0051,0.0029,0.003,0.003,0.0005,-0.0001,-0.0012,-0.0028,-0.0024,-0.0059,-0.0057,-0.0108,-0.0123,-0.0142,-0.0171,-0.0183,-0.0172,-0.0197,-0.0198,-0.0179,-0.0163,-0.0193,-0.0194,-0.0185,-0.0185,-0.0184,-0.0153,0,0.0069,0.0069,0.0051,0.0056,0.0056,0.0031,0.0026,0.0008,-0.0007,-0.0011,-0.0053,-0.0061,-0.0109,-0.0111,-0.0134,-0.016,-0.0166,-0.0177,-0.0183,-0.0183,-0.0208,-0.0193,-0.0202,-0.0179,-0.0151,-0.0151,-0.015,0,0.0085,0.0084,0.0091,0.0089,0.0087,0.0085,0.0082,0.0077,0.0057,0.0046,0.0024,0.0002,-0.0025,-0.0061,-0.01,-0.0102,-0.0128,-0.0152,-0.0152,-0.0191,-0.021,-0.0191,-0.0176,-0.0147,-0.0147,-0.0147,-0.0148,0,0.0118,0.0116,0.0126,0.0123,0.0111,0.0113,0.011,0.0095,0.0107,0.0093,0.0109,0.0062,0.0065,0.0011,-0.0042,-0.0064,-0.0073,-0.0109,-0.016,-0.0161,-0.0178,-0.0182,-0.0131,-0.0131,-0.0131,-0.0131,-0.0131,0,0.0144,0.0154,0.0143,0.0149,0.0171,0.0149,0.0172,0.0163,0.0167,0.0201,0.015,0.0176,0.0086,0.0068,-0.0005,-0.0067,-0.0042,-0.015,-0.0158,-0.0166,-0.0169,-0.0155,-0.0158,-0.013,-0.013,-0.013,-0.013,0,0.0175,0.0167,0.0182,0.018,0.0186,0.0202,0.022,0.0241,0.024,0.0288,0.0296,0.0278,0.0253,0.0167,0.0098,-0.0,-0.0069,-0.0095,-0.0091,-0.0101,-0.0162,-0.0164,-0.0156,-0.0157,-0.0157,-0.0158,-0.0158,0,0.0189,0.0198,0.0212,0.0231,0.0231,0.0252,0.0274,0.0276,0.0308,0.0359,0.0396,0.0394,0.0393,0.0273,0.0108,-0.0021,-0.0033,-0.0123,-0.0189,-0.0157,-0.0166,-0.0167,-0.0167,-0.0183,-0.0184,-0.0185,-0.0185,0,0.0217,0.022,0.0233,0.0275,0.0302,0.0337,0.0372,0.041,0.0436,0.0486,0.0563,0.0574,0.0452,0.0308,0.0109,0.0006,-0.0115,-0.0141,-0.0092,-0.0188,-0.0185,-0.0193,-0.0193,-0.019,-0.019,-0.0189,-0.0189,-0.0189,0.0242,0.0259,0.0282,0.0324,0.0365,0.0426,0.0467,0.0513,0.0588,0.0654,0.0663,0.0667,0.0496,0.0228,0.0057,-0.0138,-0.0134,-0.0221,-0.0218,-0.0215,-0.0237,-0.0237,-0.0253,-0.0253,-0.0253,-0.0253,-0.0253,0,0.0268,0.0292,0.0331,0.0386,0.0443,0.046,0.054,0.0567,0.0664,0.0714,0.0753,0.0581,0.0422,0.0248,-0.0052,-0.0238,-0.0258,-0.029,-0.0272,-0.0267,-0.0262,-0.0286,-0.0315,-0.0316,-0.0316,-0.0317,0,0,0.0286,0.0322,0.0342,0.0443,0.0495,0.0574,0.0628,0.0663,0.0701,0.0722,0.0726,0.0686,0.0484,0.0255,0.0015,-0.0141,-0.0166,-0.0183,-0.0119,-0.0066,-0.0059,-0.0214,-0.0243,0,0,0,0,0]}],[{"header":{"parameterUnit":"m.s-1","parameterCategory":2,"la1":30.2991,"la2":30.254,"lo1":-89.0895,"lo2":-89.0444,"dy":0.0017,"dx":0.0017,"nx":28,"ny":28,"refTime":"2024-03-01T03:00:00:Z","depth":"4","parameterNumber":2,"parameterNumberName":"U-component_of_CURRENTS"},"data":[0,0,0,0,0,0,0,0,0,0,0,0,0,0,0,0,0,0,0,0,0,0,0,0,0,0,0,0,0,0,0,0,0,0,0,0,0,0,0,0,0,0,0,0,0,0,0,0,0,0,0,0,0,0,0,0,0,0,0.0987,0.0988,0,0.1025,0.1025,0.1026,0.1058,0.1058,0.1059,0.1059,0.1107,0.1108,0.1108,0,0,0,0,0,0,0,0,0,0,0,0,0,0.0938,0.0939,0.0987,0.0988,0.0988,0.1025,0.1025,0.1026,0.1058,0.1058,0.1059,0.1059,0.1106,0.1107,0.1108,0,0,0,0,0,0,0,0,0,0,0,0,0,0.0965,0.0939,0.0987,0.1009,0.1012,0.1025,0.1025,0.1026,0.1058,0.1058,0.1059,0.106,0.1106,0.1107,0.1109,0.1103,0,0,0.1113,0.1113,0,0,0,0,0,0,0,0,0.0964,0.0967,0.1005,0.1008,0.1011,0.1038,0.1026,0.1053,0.1057,0.1039,0.1059,0.106,0.1085,0.1088,0.1092,0.1106,0.1108,0.1113,0.1113,0.1114,0.1114,0,0,0,0,0,0,0,0.0962,0.0966,0.1001,0.1006,0.1009,0.1016,0.102,0.1031,0.1057,0.1041,0.1044,0.1049,0.1086,0.1091,0.1093,0.1108,0.1113,0.1114,0.1115,0.1115,0.1183,0.1184,0,0,0,0,0,0,0.0959,0.0964,0.1,0.1002,0.0989,0.1016,0.1021,0.1028,0.1057,0.1062,0.1048,0.105,0.1088,0.1092,0.1095,0.1147,0.1114,0.1115,0.1116,0.1182,0.1183,0.1184,0,0,0,0,0,0,0.0957,0.0961,0.0999,0.0985,0.099,0.1017,0.1024,0.1028,0.1054,0.1063,0.1068,0.1072,0.1089,0.1093,0.1123,0.1147,0.1116,0.1117,0.1181,0.1183,0.1184,0.1216,0,0,0,0,0,0,0.0956,0.0961,0.0974,0.0984,0.0991,0.102,0.1023,0.1029,0.1055,0.1059,0.1084,0.1088,0.109,0.1121,0.1124,0.1149,0.1118,0.118,0.1182,0.1183,0.1213,0.1218,0.1222,0,0,0,0,0,0.0954,0.0965,0.0974,0.098,0.1005,0.1021,0.1025,0.1045,0.1056,0.107,0.1088,0.1088,0.1136,0.1122,0.1126,0.1152,0.1179,0.1181,0.1183,0.1211,0.1217,0.1222,0,0,0,0,0,0,0.0951,0.097,0.098,0.0998,0.1015,0.1027,0.1045,0.1056,0.1081,0.1091,0.1098,0.1103,0.1138,0.114,0.1126,0.1178,0.1159,0.1162,0.1179,0.1184,0.1189,0.1189,0.1119,0,0,0,0,0,0.0956,0.0973,0.0988,0.1006,0.1016,0.1034,0.1047,0.1061,0.1079,0.1092,0.1109,0.1129,0.1146,0.1162,0.1175,0.1202,0.121,0.1223,0.1227,0.1231,0.1234,0.1267,0.1275,0.1192,0.1192,0.1192,0,0,0.096,0.0974,0.0984,0.1007,0.1024,0.104,0.1045,0.107,0.109,0.1092,0.1131,0.1144,0.1156,0.1187,0.1203,0.1196,0.126,0.1234,0.1237,0.1238,0.127,0.1278,0.1286,0.1194,0.1193,0.1193,0,0,0.0969,0.099,0.1004,0.1021,0.1049,0.1059,0.107,0.1094,0.1115,0.1146,0.1154,0.1183,0.1211,0.1226,0.1235,0.1272,0.1279,0.1282,0.131,0.1342,0.1349,0.1355,0.1379,0.1387,0.1288,0.1289,0.1289,0,0.0974,0.0994,0.1012,0.1029,0.1047,0.1069,0.1087,0.1107,0.114,0.1159,0.1165,0.1217,0.1228,0.1265,0.1281,0.1283,0.1301,0.1288,0.1348,0.1354,0.136,0.1383,0.1391,0.129,0.129,0.129,0.129,0,0.0986,0.101,0.1022,0.1051,0.1072,0.1093,0.1119,0.1148,0.1175,0.1194,0.1243,0.1261,0.1295,0.1304,0.1305,0.1356,0.1355,0.1346,0.1333,0.137,0.1392,0.14,0.1293,0.1292,0.1292,0.1291,0,0,0.0972,0.102,0.1027,0.1046,0.1087,0.1102,0.1141,0.1177,0.1209,0.1246,0.1287,0.1322,0.1342,0.1355,0.1366,0.1394,0.1451,0.1394,0.1395,0.1415,0.1525,0.1435,0.1435,0.1458,0.146,0.1461,0.1525,0,0.0977,0.1012,0.1036,0.1073,0.1093,0.1129,0.1162,0.1202,0.1239,0.1284,0.1317,0.1361,0.1359,0.1387,0.1416,0.1445,0.1474,0.1434,0.1488,0.1489,0.1402,0.1442,0.1466,0.1531,0.1533,0.1534,0.1535,0,0.0973,0.1001,0.1038,0.109,0.1103,0.1132,0.1192,0.1227,0.1291,0.1323,0.1373,0.1401,0.1459,0.1446,0.1519,0.1499,0.1517,0.1531,0.1534,0.1442,0.1414,0.1486,0.155,0.1549,0.1548,0.1547,0.1546,0,0.0946,0.0999,0.1031,0.1048,0.1109,0.1141,0.1181,0.1245,0.1282,0.1359,0.1393,0.1457,0.1504,0.154,0.1572,0.1561,0.1638,0.1624,0.1557,0.1551,0.1599,0.1591,0.1669,0.1669,0.1669,0.1669,0.1669,0,0.0928,0.0955,0.1026,0.1042,0.1087,0.1139,0.1196,0.1241,0.1314,0.136,0.142,0.146,0.1533,0.158,0.1596,0.1601,0.1663,0.1568,0.1563,0.1611,0.1604,0.1605,0.1597,0.1671,0.1671,0.167,0.167,0,0.0886,0.0933,0.0972,0.1047,0.1074,0.111,0.1199,0.1236,0.1313,0.1375,0.1406,0.149,0.1558,0.1604,0.167,0.1627,0.1641,0.1623,0.1676,0.1672,0.1529,0.1522,0.1564,0.1562,0.1559,0.1558,0.1556,0,0.0865,0.0883,0.0966,0.0995,0.1033,0.1098,0.114,0.1227,0.1265,0.1379,0.1398,0.1496,0.1543,0.1556,0.1615,0.1641,0.1619,0.1608,0.1561,0.1528,0.152,0.1516,0.1512,0.1552,0.1552,0.1551,0.1551,0,0.0824,0.0862,0.0896,0.0958,0.1008,0.1056,0.1125,0.1141,0.1241,0.132,0.1362,0.1398,0.1467,0.1511,0.1537,0.1548,0.1605,0.1584,0.1588,0.1544,0.1514,0.1507,0.1506,0.1543,0.1544,0.1545,0.1545,0,0.0794,0.0808,0.0864,0.0909,0.0968,0.0997,0.1039,0.1088,0.1135,0.1252,0.1269,0.1367,0.1457,0.1465,0.1489,0.1495,0.1479,0.142,0.1433,0.1442,0.1371,0.1313,0.1282,0,0,0,0,0,0.076,0.0773,0.0812,0.0855,0.091,0.0946,0.102,0.1064,0.1154,0.1154,0.1207,0.1264,0.1312,0.1361,0.1347,0.1449,0.1487,0.1425,0.1426,0.15,0.1509,0.1437,0,0,0,0,0,0,0.0736,0.0772,0.0789,0.0802,0.082,0.0873,0.0915,0.0978,0.098,0.1077,0.111,0.1187,0.1254,0.1311,0.1322,0.1339,0.1313,0.1489,0.1485,0.1495,0.1503,0.151,0.1439,0,0,0,0,0]},{"header":{"parameterUnit":"m.s-1","parameterCategory":2,"la1":30.2991,"la2":30.254,"lo1":-89.0895,"lo2":-89.0444,"dy":0.0017,"dx":0.0017,"nx":28,"ny":28,"refTime":"2024-03-01T03:00:00:Z","depth":"4","parameterNumber":3,"parameterNumberName":"V-component_of_CURRENTS"},"data":[0,0,0,0,0,0,0,0,0,0,0,0,0,0,0,0,0,0,0,0,0,0,0,0,0,0,0,0,0,0,0,0,0,0,0,0,0,0,0,0,0,0,0,0,0,0,0,0,0,0,0,0,0,0,0,0,0,0,-0.019,-0.019,0,-0.0222,-0.0222,-0.0222,-0.0249,-0.0249,-0.025,-0.025,-0.0304,-0.0305,-0.0306,0,0,0,0,0,0,0,0,0,0,0,0,0,-0.0163,-0.0163,-0.019,-0.019,-0.0191,-0.0222,-0.0222,-0.0222,-0.0249,-0.025,-0.025,-0.025,-0.0303,-0.0305,-0.0306,0,0,0,0,0,0,0,0,0,0,0,0,0,-0.0183,-0.0163,-0.019,-0.0208,-0.0209,-0.0221,-0.0222,-0.0223,-0.0249,-0.025,-0.025,-0.025,-0.0303,-0.0304,-0.0306,-0.0309,0,0,-0.0311,-0.0312,0,0,0,0,0,0,0,0,-0.0181,-0.0184,-0.0205,-0.0206,-0.0208,-0.0232,-0.0232,-0.0252,-0.0249,-0.0234,-0.025,-0.0251,-0.0281,-0.0285,-0.029,-0.0311,-0.0314,-0.0312,-0.0313,-0.0313,-0.0314,0,0,0,0,0,0,0,-0.018,-0.0182,-0.0203,-0.0205,-0.0207,-0.0217,-0.0221,-0.0236,-0.0256,-0.0236,-0.0238,-0.0241,-0.0282,-0.0288,-0.0291,-0.0314,-0.0312,-0.0313,-0.0314,-0.0315,-0.034,-0.034,0,0,0,0,0,0,-0.0175,-0.0181,-0.0202,-0.0204,-0.0195,-0.0217,-0.0221,-0.0224,-0.0255,-0.026,-0.024,-0.0242,-0.0285,-0.0289,-0.0293,-0.0296,-0.0313,-0.0315,-0.0316,-0.0341,-0.034,-0.034,0,0,0,0,0,0,-0.0174,-0.0176,-0.02,-0.0193,-0.0197,-0.0217,-0.0221,-0.0224,-0.0234,-0.0258,-0.0264,-0.0246,-0.0285,-0.0291,-0.0307,-0.0298,-0.0316,-0.0317,-0.0341,-0.034,-0.034,-0.0303,0,0,0,0,0,0,-0.0173,-0.0176,-0.0178,-0.0192,-0.0197,-0.0206,-0.022,-0.0225,-0.0235,-0.0237,-0.0265,-0.027,-0.0286,-0.0304,-0.0308,-0.0301,-0.0319,-0.0341,-0.0341,-0.034,-0.0305,-0.0301,-0.0298,0,0,0,0,0,-0.0172,-0.0171,-0.0177,-0.018,-0.0198,-0.0206,-0.0209,-0.0225,-0.0234,-0.0236,-0.0255,-0.0269,-0.0302,-0.0305,-0.0311,-0.0304,-0.0342,-0.0341,-0.034,-0.0306,-0.0302,-0.0298,0,0,0,0,0,0,-0.0161,-0.0174,-0.0181,-0.0185,-0.0194,-0.021,-0.0214,-0.0225,-0.024,-0.0244,-0.0268,-0.0274,-0.0284,-0.0299,-0.0301,-0.0308,-0.0323,-0.0323,-0.0295,-0.0292,-0.0289,-0.0281,-0.032,0,0,0,0,0,-0.0159,-0.0161,-0.0175,-0.0178,-0.0182,-0.0198,-0.0204,-0.0214,-0.0229,-0.0236,-0.0254,-0.0272,-0.0284,-0.0292,-0.0307,-0.0312,-0.0334,-0.031,-0.0307,-0.0304,-0.0301,-0.032,-0.0319,-0.0337,-0.0337,-0.0337,0,0,-0.0156,-0.0163,-0.0165,-0.0175,-0.0185,-0.0184,-0.0203,-0.021,-0.0208,-0.0239,-0.0246,-0.0264,-0.0283,-0.0289,-0.0294,-0.03,-0.0312,-0.0303,-0.03,-0.0299,-0.0319,-0.0318,-0.0316,-0.0336,-0.0336,-0.0336,0,0,-0.0145,-0.0156,-0.0153,-0.0158,-0.0169,-0.0177,-0.0178,-0.0193,-0.02,-0.0208,-0.0227,-0.0238,-0.0261,-0.0268,-0.0275,-0.0263,-0.0295,-0.0269,-0.0247,-0.0265,-0.0264,-0.0263,-0.0297,-0.0299,-0.0266,-0.0266,-0.0266,0,-0.014,-0.0138,-0.0153,-0.0149,-0.015,-0.0171,-0.0165,-0.0172,-0.019,-0.0192,-0.0205,-0.0232,-0.0247,-0.025,-0.0244,-0.0255,-0.0279,-0.0259,-0.0261,-0.026,-0.026,-0.0295,-0.0298,-0.0264,-0.0264,-0.0265,-0.0265,0,-0.0125,-0.0123,-0.0121,-0.0122,-0.0126,-0.0124,-0.0134,-0.0138,-0.0151,-0.0159,-0.0169,-0.0192,-0.0207,-0.0211,-0.0225,-0.0226,-0.025,-0.0256,-0.027,-0.0256,-0.0294,-0.0298,-0.0262,-0.0262,-0.0263,-0.0263,0,0,-0.011,-0.0109,-0.0109,-0.0103,-0.0111,-0.011,-0.0107,-0.0108,-0.0105,-0.0124,-0.0125,-0.014,-0.0158,-0.0167,-0.0186,-0.02,-0.022,-0.0225,-0.0227,-0.0258,-0.0277,-0.0264,-0.0268,-0.0229,-0.023,-0.023,-0.0308,0,-0.0093,-0.0077,-0.0082,-0.0067,-0.006,-0.0073,-0.0066,-0.007,-0.0082,-0.0089,-0.0111,-0.0121,-0.014,-0.0149,-0.0164,-0.0207,-0.0227,-0.0199,-0.0287,-0.029,-0.0279,-0.027,-0.023,-0.0311,-0.0312,-0.0313,-0.0313,0,-0.0075,-0.0066,-0.0048,-0.0037,-0.0035,-0.0029,-0.0024,-0.002,-0.0033,-0.0044,-0.0061,-0.0086,-0.0108,-0.0127,-0.0191,-0.0175,-0.0221,-0.0256,-0.026,-0.0261,-0.0283,-0.0327,-0.0321,-0.032,-0.0319,-0.0319,-0.0318,0,-0.0057,-0.0042,-0.0025,-0.0022,-0.0013,-0.0006,-0.0002,-0.0007,0.0001,-0.0018,-0.0025,-0.006,-0.008,-0.0136,-0.0204,-0.0202,-0.0284,-0.0291,-0.0325,-0.0326,-0.0332,-0.0332,-0.0335,-0.0335,-0.0334,-0.0334,-0.0334,0,-0.0036,-0.0023,-0.0014,-0.0005,0.0019,0.0015,0.0034,0.0033,0.003,0.0041,-0.0001,-0.0009,-0.0082,-0.0136,-0.0203,-0.0276,-0.0285,-0.032,-0.0339,-0.0316,-0.0314,-0.0336,-0.0335,-0.0337,-0.0337,-0.0336,-0.0335,0,-0.0022,-0.0016,0.0005,0.0019,0.0028,0.0043,0.0062,0.0073,0.0065,0.0074,0.0069,0.0026,-0.004,-0.0124,-0.022,-0.0267,-0.0344,-0.037,-0.0351,-0.0368,-0.0379,-0.0375,-0.0415,-0.0415,-0.0415,-0.0415,-0.0415,0,-0.0013,-0.0001,0.0023,0.0038,0.0046,0.0068,0.0084,0.009,0.0099,0.0098,0.0099,0.0048,0.0009,-0.0119,-0.0211,-0.0342,-0.0353,-0.0403,-0.0375,-0.037,-0.0385,-0.0381,-0.0377,-0.0415,-0.0415,-0.0415,-0.0415,0,0.0,0.0006,0.0021,0.0053,0.0074,0.0102,0.0122,0.0131,0.0141,0.014,0.0136,0.0079,0.0004,-0.0098,-0.0202,-0.0294,-0.0374,-0.0404,-0.0404,-0.0378,-0.0371,-0.0384,-0.0381,-0.0416,-0.0416,-0.0416,-0.0416,0,0.0005,0.0015,0.0032,0.0059,0.0091,0.0117,0.0132,0.0147,0.0161,0.0163,0.0164,0.0091,0.0054,-0.0075,-0.0172,-0.0259,-0.0276,-0.0302,-0.0308,-0.0309,-0.0248,-0.0221,-0.0233,0,0,0,0,0,0.0003,0.0008,0.0036,0.0059,0.0092,0.0107,0.0146,0.0157,0.0169,0.018,0.0178,0.0116,0.0001,-0.0057,-0.0139,-0.0193,-0.0313,-0.0294,-0.0351,-0.0417,-0.0416,-0.0361,0,0,0,0,0,0,-0.0003,0.0016,0.0027,0.0053,0.0065,0.0098,0.0121,0.0137,0.0142,0.0154,0.0095,0.0088,-0.0032,0.0046,-0.0145,-0.0173,-0.022,-0.0346,-0.0348,-0.0417,-0.0417,-0.0416,-0.0359,0,0,0,0,0]}]]